Obrien Ridge

Elevation
7889ft
Jump to table bottom
Date/Time Wind Direction Wind Speed knots Wind Gust knots RH % Accumulated Precip Inches Air Temp Fahrenheit
2022-11-30 13:22 NNW 1 5 88 0 18
2022-11-30 12:22 NNW 2 10 86 0 18
2022-11-30 11:22 W 2 10 85 0 17
2022-11-30 10:22 ESE 2 15 85 0 15
2022-11-30 09:22 E 3 10 86 0 14
2022-11-30 08:22 N 2 14 89 0 12
2022-11-30 07:22 E 2 8 88 0 11
2022-11-30 06:22 ESE 3 10 86 0 9
2022-11-30 05:22 NE 2 11 85 0 8
2022-11-30 04:22 E 2 6 84 0 8
2022-11-30 03:22 ESE 2 11 81 0 7
2022-11-30 02:22 ENE 2 9 82 0 6
2022-11-30 01:22 SE 3 10 81 0 5
2022-11-30 00:22 SSW 1 8 82 0 4
2022-11-29 23:22 SSE 2 7 83 0 5
2022-11-29 22:22 N 1 5 83 0 5
2022-11-29 21:22 NE 1 3 83 0 5
2022-11-29 20:22 0 3 85 0 5
2022-11-29 19:22 0 6 84 0 4
2022-11-29 18:22 0 5 82 0 4
2022-11-29 17:22 0 6 81 0 4
2022-11-29 16:22 WNW 2 9 80 0 4
2022-11-29 15:22 WNW 3 11 80 0 5
2022-11-29 14:22 WNW 3 17 79 0 4
2022-11-29 13:22 NW 3 13 79 0 4
2022-11-29 12:22 WNW 3 16 80 0 5
2022-11-29 11:22 WNW 3 18 81 0 5
2022-11-29 10:22 WNW 3 13 80 0 5
2022-11-29 09:22 W 3 7 81 0 5
2022-11-29 08:22 W 1 6 83 0 4
2022-11-29 07:22 WSW 1 10 83 0 4
2022-11-29 06:22 0 5 83 0 4
2022-11-29 05:22 WSW 3 8 84 0 4
2022-11-29 04:22 WNW 1 7 84 0 4
2022-11-29 03:22 NW 1 5 85 0 4
2022-11-29 02:22 SW 1 6 84 0 2
2022-11-29 01:22 WNW 2 9 83 0 5
2022-11-29 00:22 WNW 2 7 84 0 6
2022-11-28 23:22 S 1 6 85 0 7
2022-11-28 22:22 ESE 3 12 84 0 7
2022-11-28 21:22 SE 3 5 83 0 7
2022-11-28 20:22 SE 2 3 82 0 7
2022-11-28 19:22 0 3 84 0 4
2022-11-28 18:22 0 2 84 0 3
2022-11-28 17:22 0 0 83 0 4
2022-11-28 16:22 0 2 81 0 9
2022-11-28 15:22 0 3 83 0 10
2022-11-28 14:22 S 1 4 77 0 11
2022-11-28 13:22 ESE 3 5 74 0 12
2022-11-28 12:22 ESE 2 4 73 0 12